Newcastle, WY

6:33 AM MST on December 13, 2019 (GMT -0700)
Mondell

Weather History for KECS - October, 2019

Change the Weather History Date:

Saturday, October 19, 2019

  Actual Average (KCUT) Record (KCUT)
Temperature  
Mean Temperature 40 °F -  
Max Temperature 53 °F 56 °F 78 °F (1958)
Min Temperature 28 °F 28 °F 5 °F (1976)
Degree Days  
Heating Degree Days 24    
Moisture  
Dew Point 23 °F    
Average Humidity 54    
Maximum Humidity 93    
Minimum Humidity 26    
Precipitation  
Precipitation 0.00 in - - ()
Sea Level Pressure  
Sea Level Pressure 29.77 in    
Wind  
Wind Speed 5 mph (ESE)    
Max Wind Speed 14 mph    
Max Gust Speed 22 mph    
Visibility 10 miles    
Events      
Averages and records for this station are not official NWS values.
T = Trace of Precipitation, MM = Missing Value Source: NWS Daily Summary

Daily Weather History Graph

Daily Weather History Graph

Search for Another Location

Airport or City:

Astronomy

Oct. 19, 2019 Rise Set
Actual Time 7:16 AM MDT 6:07 PM MDT
Civil Twilight 6:47 AM MDT 6:36 PM MDT
Nautical Twilight 6:13 AM MDT 7:09 PM MDT
Astronomical Twilight 5:40 AM MDT 7:43 PM MDT
Moon 10:09 PM MDT (10/19) 12:59 PM MDT (10/19)
Length of Visible Light 11h 49m
Length of Day
10h 50m
Waning Gibbous, 69% of the Moon is Illuminated
Oct 19
Waning Gibbous
Oct 21
Last Quarter
Oct 27
New
Nov 4
First Quarter
Nov 12
Full

Hourly Weather History & Observations

Time (MDT) Temp. Windchill Dew Point Humidity Pressure Visibility Wind Dir Wind Speed Gust Speed Precip Events Conditions
12:15 AM 30.2 °F 26.7 °F 28.4 °F 93% 29.84 in 10.0 mi East 3.5 mph - N/A   Mostly Cloudy
12:35 AM 32.0 °F 26.4 °F 28.4 °F 87% 29.84 in 10.0 mi NE 5.8 mph - N/A   Scattered Clouds
12:55 AM 32.0 °F 25.6 °F 26.6 °F 80% 29.84 in 10.0 mi NNE 6.9 mph - N/A   Scattered Clouds
1:15 AM 30.2 °F - 26.6 °F 86% 29.84 in 10.0 mi Calm Calm - N/A   Clear
1:35 AM 32.0 °F - 26.6 °F 80% 29.84 in 10.0 mi Calm Calm - N/A   Clear
1:55 AM 32.0 °F 28.7 °F 28.4 °F 87% 29.84 in 10.0 mi NE 3.5 mph - N/A   Mostly Cloudy
2:35 AM 30.2 °F - 26.6 °F 86% 29.84 in 10.0 mi Calm Calm - N/A   Clear
2:55 AM 30.2 °F - 24.8 °F 80% 29.84 in 10.0 mi Calm Calm - N/A   Clear
3:15 AM 30.2 °F 26.7 °F 24.8 °F 80% 29.84 in 10.0 mi NE 3.5 mph - N/A   Clear
3:35 AM 30.2 °F - 24.8 °F 80% 29.84 in 10.0 mi Calm Calm - N/A   Clear
3:55 AM 28.4 °F - 23.0 °F 80% 29.84 in 10.0 mi Calm Calm - N/A   Clear
4:15 AM 28.4 °F 22.2 °F 23.0 °F 80% 29.84 in 10.0 mi NNE 5.8 mph - N/A   Clear
4:35 AM 28.4 °F - 23.0 °F 80% 29.84 in 10.0 mi Calm Calm - N/A   Clear
4:55 AM 28.4 °F - 23.0 °F 80% 29.85 in 10.0 mi Calm Calm - N/A   Clear
5:15 AM 28.4 °F 24.6 °F 23.0 °F 80% 29.85 in 10.0 mi North 3.5 mph - N/A   Clear
5:35 AM 28.4 °F 24.6 °F 23.0 °F 80% 29.85 in 10.0 mi NNW 3.5 mph - N/A   Clear
5:55 AM 28.4 °F 20.4 °F 23.0 °F 80% 29.86 in 10.0 mi North 8.1 mph - N/A   Clear
6:15 AM 28.4 °F 20.4 °F 23.0 °F 80% 29.86 in 10.0 mi North 8.1 mph - N/A   Clear
6:35 AM 28.4 °F 21.2 °F 23.0 °F 80% 29.87 in 10.0 mi North 6.9 mph - N/A   Clear
6:55 AM 28.4 °F 24.6 °F 23.0 °F 80% 29.87 in 10.0 mi NNE 3.5 mph - N/A   Clear
7:15 AM 28.4 °F 21.2 °F 23.0 °F 80% 29.87 in 10.0 mi North 6.9 mph - N/A   Clear
7:35 AM 28.4 °F 20.4 °F 23.0 °F 80% 29.86 in 10.0 mi North 8.1 mph - N/A   Clear
7:55 AM 30.2 °F 24.3 °F 23.0 °F 75% 29.87 in 10.0 mi North 5.8 mph - N/A   Clear
8:15 AM 32.0 °F 26.4 °F 24.8 °F 75% 29.87 in 10.0 mi North 5.8 mph - N/A   Clear
8:35 AM 32.0 °F 28.7 °F 24.8 °F 75% 29.87 in 10.0 mi NE 3.5 mph - N/A   Clear
8:55 AM 32.0 °F 26.4 °F 26.6 °F 80% 29.87 in 10.0 mi ESE 5.8 mph - N/A   Clear
9:15 AM 35.6 °F 29.2 °F 28.4 °F 75% 29.87 in 10.0 mi ESE 8.1 mph - N/A   Clear
9:35 AM 37.4 °F 29.8 °F 28.4 °F 70% 29.87 in 10.0 mi South 11.5 mph - N/A   Clear
9:55 AM 39.2 °F 33.6 °F 28.4 °F 65% 29.86 in 10.0 mi SE 8.1 mph - N/A   Clear
10:15 AM 42.8 °F - 28.4 °F 57% 29.86 in 10.0 mi Calm Calm - N/A   Clear
10:35 AM 44.6 °F - 23.0 °F 43% 29.85 in 10.0 mi Calm Calm - N/A   Clear
10:55 AM 46.4 °F - 21.2 °F 37% 29.84 in 10.0 mi Calm Calm - N/A   Clear
11:15 AM 46.4 °F - 19.4 °F 34% 29.82 in 10.0 mi Calm Calm - N/A   Clear
11:35 AM 48.2 °F - 19.4 °F 32% 29.82 in 10.0 mi SE 3.5 mph - N/A   Clear
11:55 AM 50.0 °F - 19.4 °F 30% 29.81 in 10.0 mi SSE 9.2 mph 16.1 mph N/A   Clear
12:15 PM 50.0 °F - 19.4 °F 30% 29.80 in 10.0 mi SSE 5.8 mph - N/A   Clear
12:35 PM 50.0 °F - 19.4 °F 30% 29.78 in 10.0 mi Calm Calm - N/A   Clear
12:55 PM 51.8 °F - 19.4 °F 28% 29.77 in 10.0 mi SSE 4.6 mph - N/A   Clear
1:15 PM 51.8 °F - 19.4 °F 28% 29.77 in 10.0 mi SSW 5.8 mph 17.3 mph N/A   Clear
1:35 PM 51.8 °F - 19.4 °F 28% 29.76 in 10.0 mi SW 3.5 mph 19.6 mph N/A   Clear
2:15 PM 51.8 °F - 19.4 °F 28% 29.74 in 10.0 mi South 10.4 mph 19.6 mph N/A   Clear
2:55 PM 51.8 °F - 19.4 °F 28% 29.71 in 10.0 mi SSE 3.5 mph 9.2 mph N/A   Clear
3:15 PM 53.6 °F - 19.4 °F 26% 29.70 in 10.0 mi SSE 3.5 mph - N/A   Clear
3:35 PM 53.6 °F - 19.4 °F 26% 29.70 in 10.0 mi ESE 4.6 mph - N/A   Clear
3:55 PM 51.8 °F - 19.4 °F 28% 29.70 in 10.0 mi SW 3.5 mph - N/A   Clear
4:15 PM 51.8 °F - 19.4 °F 28% 29.70 in 10.0 mi ESE 5.8 mph - N/A   Scattered Clouds
4:35 PM 51.8 °F - 19.4 °F 28% 29.69 in 10.0 mi ESE 8.1 mph - N/A   Scattered Clouds
4:55 PM 50.0 °F - 19.4 °F 30% 29.68 in 10.0 mi SSE 4.6 mph - N/A   Clear
5:15 PM 50.0 °F - 19.4 °F 30% 29.68 in 10.0 mi Calm Calm - N/A   Clear
5:35 PM 48.2 °F - 19.4 °F 32% 29.68 in 10.0 mi Calm Calm - N/A   Clear
5:55 PM 46.4 °F 43.5 °F 21.2 °F 37% 29.67 in 10.0 mi East 5.8 mph - N/A   Clear
6:15 PM 46.4 °F 43.5 °F 19.4 °F 34% 29.66 in 10.0 mi East 5.8 mph - N/A   Clear
6:35 PM 44.6 °F 40.2 °F 19.4 °F 37% 29.65 in 10.0 mi East 8.1 mph - N/A   Clear
6:55 PM 44.6 °F 41.4 °F 19.4 °F 37% 29.66 in 10.0 mi ESE 5.8 mph - N/A   Clear
7:15 PM 42.8 °F 38.0 °F 19.4 °F 39% 29.65 in 10.0 mi ESE 8.1 mph - N/A   Clear
7:55 PM 44.6 °F 39.7 °F 19.4 °F 37% 29.65 in 10.0 mi ESE 9.2 mph - N/A   Clear
8:15 PM 46.4 °F 40.7 °F 17.6 °F 32% 29.64 in 10.0 mi East 12.7 mph 19.6 mph N/A   Clear
8:35 PM 46.4 °F 40.4 °F 17.6 °F 32% 29.64 in 10.0 mi East 13.8 mph 20.7 mph N/A   Clear
8:55 PM 46.4 °F 40.7 °F 17.6 °F 32% 29.63 in 10.0 mi East 12.7 mph 21.9 mph N/A   Clear
9:15 PM 46.4 °F 40.4 °F 17.6 °F 32% 29.64 in 10.0 mi ESE 13.8 mph 21.9 mph N/A   Scattered Clouds
9:35 PM 46.4 °F 41.9 °F 19.4 °F 34% 29.64 in 10.0 mi ESE 9.2 mph 20.7 mph N/A   Overcast
9:55 PM 46.4 °F 41.5 °F 19.4 °F 34% 29.63 in 10.0 mi SSE 10.4 mph - N/A   Overcast
10:15 PM 44.6 °F 39.2 °F 21.2 °F 39% 29.63 in 10.0 mi SSE 10.4 mph - N/A   Overcast
10:35 PM 44.6 °F 39.7 °F 23.0 °F 43% 29.63 in 10.0 mi SSE 9.2 mph - N/A   Overcast
10:55 PM 44.6 °F 41.4 °F 24.8 °F 46% 29.63 in 10.0 mi South 5.8 mph - N/A   Overcast
11:15 PM 44.6 °F 40.2 °F 26.6 °F 49% 29.63 in 10.0 mi South 8.1 mph - N/A   Light Drizzle
11:35 PM 44.6 °F 39.2 °F 30.2 °F 57% 29.61 in 10.0 mi SSE 10.4 mph 19.6 mph N/A   Drizzle
11:55 PM 44.6 °F 43.1 °F 32.0 °F 61% 29.60 in 10.0 mi WSW 3.5 mph - N/A   Light Drizzle